Notices

What's New in latest Release from April 7th, 2021:

- Updated Glossary, including Speed of Maximum Gust, and Total Hourly Precipitation

- Updated national and regional climate services offices contacts and prices information

- Addition of station inventory lists for 1981-2010, 1971-2000, and 1961-1990 Normals.

If you haven't already, please take our survey and provide feedback about our website: https://eccc.sondage-survey.ca/f/LanguageSelection.aspx?s=442ca660-fcf1-47c0-95a9-59707d6fd709

Hourly Data Report for January 18, 2006

TORONTO CITY
ONTARIO

43°40'00.000" N
79°24'00.000" W
112.50 m
6158355
71508
XTO

Download Data

Hourly Data (January 2006)
Hourly Data Report for January 18, 2006
TIME
LST
Temp Definition
°C
Dew Point Definition
°C
Rel Hum Definition
%
Precip. Amount Definition
mm

Wind Dir Definition
10's deg

Wind Spd Definition
km/h
Visibility Definition
km
Stn Press Definition
kPa
Hmdx Definition


Wind Chill Definition


Weather Definition


00:00 4.5 4.3 99   LegendMM LegendMM   98.27     LegendNANA
01:00 4.9 4.6 98   LegendMM LegendMM   98.21     LegendNANA
02:00 4.8 4.5 98   LegendMM LegendMM   98.06     LegendNANA
03:00 5.2 4.7 97   LegendMM LegendMM   98.06     LegendNANA
04:00 4.5 4.1 97   LegendMM LegendMM   97.99     LegendNANA
05:00 4.8 4.6 99   LegendMM LegendMM   97.78     LegendNANA
06:00 5.5 5.4 99   LegendMM LegendMM   97.73     LegendNANA
07:00 5.6 5.4 99   LegendMM LegendMM   97.72     LegendNANA
08:00 4.9 4.7 99   LegendMM LegendMM   97.75     LegendNANA
09:00 3.4 2.4 93   LegendMM LegendMM   97.91     LegendNANA
10:00 2.8 1.1 89   LegendMM LegendMM   98.02     LegendNANA
11:00 2.4 0.9 90   LegendMM LegendMM   98.07     LegendNANA
12:00 1.2 0.3 94   LegendMM LegendMM   98.17     LegendNANA
13:00 1.5 0.1 90   LegendMM LegendMM   98.24     LegendNANA
14:00 1.9 0.3 89   LegendMM LegendMM   98.36     LegendNANA
15:00 2.5 -0.6 80   LegendMM LegendMM   98.52     LegendNANA
16:00 1.8 -1.0 82   LegendMM LegendMM   98.75     LegendNANA
17:00 1.2 -2.2 78   LegendMM LegendMM   98.93     LegendNANA
18:00 0.8 -2.3 80   LegendMM LegendMM   99.08     LegendNANA
19:00 0.0 -2.6 83   LegendMM LegendMM   99.23     LegendNANA
20:00 -0.7 -3.3 83   LegendMM LegendMM   99.37     LegendNANA
21:00 -1.0 -6.5 66   LegendMM LegendMM   99.57     LegendNANA
22:00 -1.5 -6.0 71   LegendMM LegendMM   99.72     LegendNANA
23:00 -1.6 -4.9 78   LegendMM LegendMM   99.85     LegendNANA

Notes on Data Quality.

Legend

  • E = Estimated
  • M = Missing
  • NA = Not Available*
  • [empty] = Indicates an unobserved value
Date modified: